Regional Weather Roundup
Issued by NWS

Home | Current Version | Previous Version | Text Only | Print | Product List | Glossary Off
Versions: 1 2 3 4 5 6 7 8 9 10 11 12 13 14 15 16 17 18 19 20 21 22 23 24 25 26 27 28 29 30 31 32 33 34 35 36 37 38 39 40 41 42 43 44 45 46 47 48 49 50

000
ASUS43 KDTX 201301
RWRMI
MICHIGAN HOURLY REGIONAL WEATHER ROUNDUP
NATIONAL WEATHER SERVICE DETROIT/PONTIAC MI
900 AM EDT SAT SEP 20 2014

NOTE: "FAIR" INDICATES FEW OR NO CLOUDS BELOW 12,000 FEET WITH NO
SIGNIFICANT WEATHER AND/OR OBSTRUCTION TO VISIBILITY.

MIZ047>049-052>055-059>063-066>070-074>076-081>083-201400-
SOUTHEAST LOWER MICHIGAN

CITY           SKY/WX    TMP DP  RH WIND       PRES   REMARKS
ADRIAN         PTSUNNY   54  49  83 SW10      30.01S
ALMA           CLOUDY    61  53  76 S7        29.87F
ANN ARBOR      MOSUNNY   57  51  80 S5        29.98F
BAD AXE        CLOUDY    60  53  77 S12G17    29.89F
CARO           CLOUDY    62  53  73 SW14G21   29.90S
DETROIT CITY   MOSUNNY   64  51  62 SW13G21   29.98F
DETROIT        PTSUNNY   57  51  80 S12       30.00S
FLINT          CLOUDY    63  52  67 SW14G22   29.93F
GROSSE ILE     MOSUNNY   61  54  77 S9        29.99S
HILLSDALE      PTSUNNY   60  55  82 SW6       29.99S
HOWELL         PTSUNNY   59  52  77 S7        29.95S

CITY           SKY/WX    TMP DP  RH WIND       PRES   REMARKS
JACKSON        PTSUNNY   62  52  69 SW9       29.97S
LAMBERTVILLE   MOSUNNY   61  52  72 S7        30.00F
LANSING        CLOUDY    61  52  72 SW16G23   29.92F THUNDER
LAPEER         LGT RAIN  62  51  66 SW9G17    29.94F
MASON          PTSUNNY   59  53  79 CALM      29.94F
MONROE         MOSUNNY   61  54  77 SW8       29.99S
MT. CLEMENS    CLOUDY    63  55  76 SW9       29.95F
PONTIAC        PTSUNNY   61  50  67 SW8       29.96S
PORT HOPE        N/A     62  50  64 SW9       29.85F
PORT HURON     PTSUNNY   61  54  77 SW7       29.97S
TRI CITIES     CLOUDY    65  53  65 SW16G24   29.86F
TROY           MOSUNNY   60  50  69 SW10      29.99S
SAGINAW HB     CLOUDY    63  52  67 S14G20    29.87F
$$
MIZ043>046-050>051-056>058-064>065-071>073-077>080-201400-
SOUTHWEST LOWER MICHIGAN

CITY           SKY/WX    TMP DP  RH WIND       PRES   REMARKS
BATTLE CREEK   CLOUDY    61  52  72 S15       29.94F
BENTON HARBOR  PTSUNNY   62  54  74 S8        29.91F
BIG RAPIDS     CLOUDY    63  59  87 SW9       29.82S
COLDWATER      PTSUNNY   62  55  76 SW9       29.98S
FREMONT        FAIR      64  56  76 S13G21    29.82F
HOLLAND        CLOUDY    65  58  78 SW16G25   29.88F
GRAND RAPIDS   CLOUDY    63  54  72 S14       29.89F
IONIA          FAIR      60  55  83 SW8       29.88F
KALAMAZOO      CLOUDY    60  53  77 S12       29.94F
LUDINGTON      PTSUNNY   67  61  80 SW20G30   29.79R
MARSHALL       CLOUDY    60  52  75 S8G20     29.95S
MOUNT PLEASANT CLOUDY    62  53  73 S6        29.83F
MUSKEGON       PTSUNNY   66  57  72 S21G30    29.82F
SOUTH HAVEN    PTSUNNY   64  56  73 SW10      29.90F
$$
MIZ016>042-201400-
NORTHERN LOWER MICHIGAN

CITY           SKY/WX    TMP DP  RH WIND       PRES   REMARKS
ALPENA         CLOUDY    58  54  86 S9        29.75F THUNDER
BEAVER ISLAND  LGT RAIN  63  62  97 SW15G24   29.67F
BELLAIRE       CLOUDY    62  59  89 S7        29.73F
CADILLAC       PTSUNNY   60  57  90 S14G21    29.78F
CHARLEVOIX     LGT RAIN  61  61  99 S12       29.74F
FRANKFORT      CLOUDY    66  58  76 S9        29.74R
GAYLORD        CLOUDY    58  56  93 S12       29.75F
GRAYLING       CLOUDY    59  57  92 S7        29.78F
HARBOR SPRINGS RAIN      61  59  94 SW9       29.71F
HOUGHTON LAKE  CLOUDY    59  53  80 S8        29.81F
MANISTEE       CLOUDY    64  57  77 SW8G16    29.77R
OSCODA         CLOUDY    59  50  72 SW16G22   29.81F
PELLSTON       RAIN      61  59  93 SW7       29.71F FOG
ROGERS CITY    RAIN      58  57  97 S13       29.71F
TRAVERSE CITY  CLOUDY    63  58  83 SW8       29.73S
$$
MIZ007>008-015-201400-
EASTERN UPPER MICHIGAN

CITY           SKY/WX    TMP DP  RH WIND       PRES   REMARKS
KINROSS        CLOUDY    61  61 100 S8        29.67F
MACKINAC ISLAN RAIN      60  59  99 S7        29.69F
NEWBERRY       CLOUDY    59  56  90 SW12      29.63F
S. S. MARIE    CLOUDY    61  57  87 S7        29.66F
$$
MIZ004>006-011>014-085-201400-
CENTRAL UPPER MICHIGAN

CITY           SKY/WX    TMP DP  RH WIND       PRES   REMARKS
MANISTIQUE     CLOUDY    58  57  97 S7        29.63F FOG
ESCANABA       CLOUDY    64  59  82 W9        29.63F
MENOMINEE      CLOUDY    64  61  88 W7        29.64F
SAWYER-GWINN   CLOUDY    59  55  88 S8        29.61F
$$
MIZ001>003-009>011-084-201400-
WESTERN UPPER MICHIGAN

CITY           SKY/WX    TMP DP  RH WIND       PRES   REMARKS
IRON MOUNTAIN  CLOUDY    67  62  84 W10G18    29.62F
HOUGHTON         N/A    N/A N/A N/A MISG      29.55S
COPPER HARBOR    N/A     62  58  86 CALM      29.53F
IRONWOOD       CLOUDY    64  63  94 W10       29.62R
$$

ABBREVIATIONS USED IN REMARKS
   TC - TEMPERATURE IN CELSIUS
  WCI - WIND CHILL INDEX
   HX - HEAT INDEX
  VSB - VISIBILITY



USA.gov is the U.S. government's official web portal to all federal, state and local government web resources and services.